Voltar ao catálogo

FREGAT R/B

AtivoHEO
NORAD 52146·ROCKET BODY·🇷🇺 Russia

Lançado Mar 22, 2022 de Plesetsk Cosmodrome

Loading…

Próximas Passagens (próximas 24 horas)

TLE

AtualizadoSource: Space-Track

Época: Sep 12, 2026, 02:41 UTC

1 52146U 22030B   26255.11213851 -.00000839  00000-0  00000-0 0  9998
2 52146  62.6813 125.1002 6892804 274.6999  16.1711  2.00114484 32758

Acompanhe FREGAT R/B em tempo real com AllMySat

Download on the App Store